TimeEDT,TemperatureF,Dew PointF,Humidity,Sea Level PressureIn,VisibilityMPH,Wind Direction,Wind SpeedMPH,Gust SpeedMPH,PrecipitationIn,Events,Conditions,WindDirDegrees,DateUTC
12:13 AM,59.0,55.4,88,30.14,10.0,Calm,Calm,-,N/A,,Clear,0,2013-09-07 04:13:00
12:33 AM,57.2,55.4,94,30.15,10.0,Calm,Calm,-,N/A,,Clear,0,2013-09-07 04:33:00
12:53 AM,55.4,53.6,94,30.15,10.0,Calm,Calm,-,N/A,,Clear,0,2013-09-07 04:53:00
1:14 AM,55.4,53.6,94,30.14,10.0,Calm,Calm,-,N/A,,Clear,0,2013-09-07 05:14:00
1:34 AM,55.4,53.6,94,30.14,10.0,Calm,Calm,-,N/A,,Clear,0,2013-09-07 05:34:00
1:54 AM,55.4,53.6,94,30.14,10.0,Calm,Calm,-,N/A,,Clear,0,2013-09-07 05:54:00
2:14 AM,55.4,53.6,94,30.13,10.0,Calm,Calm,-,N/A,,Clear,0,2013-09-07 06:14:00
2:34 AM,55.4,53.6,94,30.12,10.0,Calm,Calm,-,N/A,,Clear,0,2013-09-07 06:34:00
2:54 AM,55.4,53.6,94,30.12,10.0,Calm,Calm,-,N/A,,Clear,0,2013-09-07 06:54:00
3:14 AM,55.4,53.6,94,30.12,10.0,Calm,Calm,-,N/A,,Clear,0,2013-09-07 07:14:00
3:34 AM,55.4,53.6,94,30.12,10.0,Calm,Calm,-,N/A,,Clear,0,2013-09-07 07:34:00
3:54 AM,55.4,53.6,94,30.12,10.0,Calm,Calm,-,N/A,,Clear,0,2013-09-07 07:54:00
4:14 AM,55.4,53.6,94,30.12,10.0,Calm,Calm,-,N/A,,Clear,0,2013-09-07 08:14:00
4:34 AM,55.4,53.6,94,30.12,10.0,Calm,Calm,-,N/A,,Clear,0,2013-09-07 08:34:00
4:54 AM,55.4,53.6,94,30.12,10.0,Calm,Calm,-,N/A,,Clear,0,2013-09-07 08:54:00
5:14 AM,55.4,53.6,94,30.12,10.0,Calm,Calm,-,N/A,,Clear,0,2013-09-07 09:14:00
5:34 AM,55.4,53.6,94,30.12,10.0,Calm,Calm,-,N/A,,Clear,0,2013-09-07 09:34:00
5:54 AM,53.6,51.8,94,30.12,10.0,Calm,Calm,-,N/A,,Clear,0,2013-09-07 09:54:00
6:14 AM,53.6,51.8,94,30.12,10.0,Calm,Calm,-,N/A,,Clear,0,2013-09-07 10:14:00
6:34 AM,53.6,51.8,94,30.12,10.0,Calm,Calm,-,N/A,,Clear,0,2013-09-07 10:34:00
6:54 AM,53.6,51.8,94,30.12,10.0,Calm,Calm,-,N/A,,Clear,0,2013-09-07 10:54:00
7:14 AM,55.4,53.6,94,30.12,10.0,Calm,Calm,-,N/A,,Clear,0,2013-09-07 11:14:00
7:34 AM,55.4,53.6,94,30.12,10.0,Calm,Calm,-,N/A,,Clear,0,2013-09-07 11:34:00
7:54 AM,59.0,53.6,82,30.12,10.0,Calm,Calm,-,N/A,,Clear,0,2013-09-07 11:54:00
8:14 AM,60.8,55.4,82,30.11,10.0,Calm,Calm,-,N/A,,Clear,0,2013-09-07 12:14:00
8:34 AM,62.6,55.4,77,30.11,10.0,SSE,3.5,-,N/A,,Clear,150,2013-09-07 12:34:00
8:54 AM,64.4,57.2,77,30.11,10.0,SE,3.5,-,N/A,,Clear,140,2013-09-07 12:54:00
9:14 AM,68.0,59.0,73,30.11,10.0,Calm,Calm,-,N/A,,Clear,0,2013-09-07 13:14:00
9:35 AM,69.8,60.8,73,30.11,10.0,SSW,3.5,-,N/A,,Clear,210,2013-09-07 13:35:00
9:55 AM,69.8,59.0,68,30.11,10.0,West,4.6,-,N/A,,Clear,260,2013-09-07 13:55:00
10:15 AM,71.6,59.0,64,30.11,10.0,WNW,5.8,-,N/A,,Clear,290,2013-09-07 14:15:00
10:35 AM,71.6,59.0,64,30.10,10.0,West,5.8,-,N/A,,Clear,260,2013-09-07 14:35:00
10:55 AM,75.2,59.0,57,30.10,10.0,West,5.8,-,N/A,,Scattered Clouds,260,2013-09-07 14:55:00
11:15 AM,75.2,59.0,57,30.10,10.0,West,5.8,-,N/A,,Scattered Clouds,260,2013-09-07 15:15:00
11:35 AM,75.2,57.2,53,30.09,10.0,SW,5.8,-,N/A,,Scattered Clouds,230,2013-09-07 15:35:00
11:55 AM,75.2,55.4,50,30.09,10.0,NNW,5.8,-,N/A,,Clear,330,2013-09-07 15:55:00
1:15 PM,77.0,51.8,41,30.06,10.0,SW,4.6,-,N/A,,Clear,220,2013-09-07 17:15:00
1:35 PM,77.0,53.6,44,30.05,10.0,NNW,6.9,-,N/A,,Clear,330,2013-09-07 17:35:00
1:55 PM,77.0,55.4,47,30.05,10.0,Calm,Calm,-,N/A,,Clear,0,2013-09-07 17:55:00
2:15 PM,78.8,51.8,39,30.04,10.0,NNW,3.5,-,N/A,,Clear,330,2013-09-07 18:15:00
2:34 PM,78.8,53.6,42,30.03,10.0,Calm,Calm,-,N/A,,Clear,0,2013-09-07 18:34:00
2:55 PM,78.8,51.8,39,30.02,10.0,WSW,5.8,-,N/A,,Clear,240,2013-09-07 18:55:00
3:15 PM,78.8,53.6,42,30.01,10.0,South,4.6,-,N/A,,Clear,190,2013-09-07 19:15:00
3:35 PM,78.8,55.4,44,30.00,10.0,West,5.8,-,N/A,,Clear,260,2013-09-07 19:35:00
3:55 PM,78.8,55.4,44,29.99,10.0,West,6.9,-,N/A,,Clear,270,2013-09-07 19:55:00
4:15 PM,78.8,55.4,44,29.99,10.0,SW,4.6,-,N/A,,Clear,230,2013-09-07 20:15:00
4:35 PM,78.8,55.4,44,29.99,10.0,SSE,3.5,-,N/A,,Mostly Cloudy,160,2013-09-07 20:35:00
4:55 PM,78.8,55.4,44,29.99,10.0,SW,4.6,-,N/A,,Mostly Cloudy,220,2013-09-07 20:55:00
5:15 PM,78.8,59.0,51,29.98,10.0,SW,5.8,-,N/A,,Scattered Clouds,230,2013-09-07 21:15:00
5:35 PM,78.8,59.0,51,29.98,10.0,South,4.6,-,N/A,,Scattered Clouds,190,2013-09-07 21:35:00
5:55 PM,75.2,59.0,57,29.98,10.0,SW,3.5,-,N/A,,Scattered Clouds,230,2013-09-07 21:55:00
6:16 PM,75.2,60.8,61,29.97,10.0,Calm,Calm,-,N/A,,Clear,0,2013-09-07 22:16:00
6:36 PM,73.4,60.8,65,29.97,10.0,SSW,3.5,-,N/A,,Clear,210,2013-09-07 22:36:00
6:56 PM,73.4,59.0,61,29.97,10.0,SSW,3.5,-,N/A,,Clear,210,2013-09-07 22:56:00
7:16 PM,71.6,59.0,64,29.97,10.0,SSW,3.5,-,N/A,,Clear,200,2013-09-07 23:16:00
7:36 PM,69.8,60.8,73,29.97,10.0,Calm,Calm,-,N/A,,Clear,0,2013-09-07 23:36:00
7:56 PM,69.8,60.8,73,29.98,10.0,Calm,Calm,-,N/A,,Clear,0,2013-09-07 23:56:00
8:16 PM,69.8,60.8,73,29.97,10.0,South,3.5,-,N/A,,Clear,190,2013-09-08 00:16:00
8:36 PM,68.0,60.8,78,29.97,10.0,Calm,Calm,-,N/A,,Clear,0,2013-09-08 00:36:00
8:56 PM,64.4,59.0,83,29.97,10.0,Calm,Calm,-,N/A,,Clear,0,2013-09-08 00:56:00
9:16 PM,64.4,59.0,83,29.97,10.0,Calm,Calm,-,N/A,,Clear,0,2013-09-08 01:16:00
9:36 PM,64.4,59.0,83,29.97,10.0,Calm,Calm,-,N/A,,Clear,0,2013-09-08 01:36:00
9:56 PM,64.4,59.0,83,29.97,10.0,Calm,Calm,-,N/A,,Clear,0,2013-09-08 01:56:00
10:16 PM,64.4,60.8,88,29.96,10.0,Calm,Calm,-,N/A,,Clear,0,2013-09-08 02:16:00
10:36 PM,64.4,60.8,88,29.96,10.0,Calm,Calm,-,N/A,,Clear,0,2013-09-08 02:36:00
10:56 PM,64.4,60.8,88,29.96,10.0,Calm,Calm,-,N/A,,Clear,0,2013-09-08 02:56:00
11:16 PM,64.4,59.0,83,29.95,10.0,Calm,Calm,-,N/A,,Clear,0,2013-09-08 03:16:00
11:36 PM,62.6,59.0,88,29.95,10.0,Calm,Calm,-,N/A,,Clear,0,2013-09-08 03:36:00
11:56 PM,62.6,59.0,88,29.94,10.0,Calm,Calm,-,N/A,,Clear,0,2013-09-08 03:56:00